Torna al catalogo

ONEWEB-0687

AttivoComunicazioniPO
NORAD 61595·PAYLOAD·🇬🇧 United Kingdom

Lanciato Oct 20, 2024 da Vandenberg Space Force Base

Loading…

Prossimi Passaggi (prossime 24 ore)

TLE

AggiornatoSource: CelesTrak SupGP

Epoca: Sep 14, 2026, 13:20 UTC

1 61595C 24188B   26257.55573333  .00000660  00000+0  17023-2 0  2578
2 61595  87.9205 348.1253 0001858 117.6451 356.3804 13.17650886    17

Traccia ONEWEB-0687 in tempo reale con AllMySat

Download on the App Store